Flag for U.S.A. Weather past 2 weeks in Savannah, Georgia, U.S.A.

Now
80 °F

Clear.


Feels Like: 87 °F
Forecast: 76 / 89 °F
Wind: 7 mph from South

Location: Hunter U. S. Army Airfield

Current Time: Sep 2, 2014 at 2:57:15 AM

Latest Report: Sep 2, 2014 at 1:58 AM


Visibility: 10 mi

Pressure: 30.08 "Hg

Humidity: 89%

Dew point: 77 °F

Location of SavannahLocation

Historic Weather in Savannah — Graph

°F

Savannah temperature yesterday

Maximum temperature yesterday: 91 °F (at 12:58 PM)
Minimum temperature yesterday: 72 °F (at 6:58 AM)
Average temperature yesterday: 82 °F

Past Weeks' High & Low Weather Summary

 TemperatureHumidityPressure
High99 °F (Aug 22, 4:58 PM)100% (Aug 22, 6:58 AM)30.17 "Hg (Aug 22, 6:58 AM)
Low65 °F (Aug 28, 6:58 AM)35% (Aug 23, 3:58 PM)29.81 "Hg (Aug 24, 4:58 AM)
Average82 °F73%30.00 "Hg
* Reported Aug 18 1:58 AM — Sep 2 1:58 AM, Savannah, Weather by CustomWeather, © 2014

Note: Actual official high and low records may vary slightly from our data, if they occured in-between our weather recording intervals... More about our weather records

Advertising

Savannah weather history for previous 24 hours

 ConditionsComfort  
Time TempWeatherWind HumidityBarometerVisibility
1:58 AM
Sep 2
80 °FClear.7 mph89%30.08 "Hg10 mi
12:58 AM81 °FClear.5 mph89%30.08 "Hg10 mi
11:58 PM
Sep 1
81 °FClear.3 mph88%30.10 "Hg10 mi
10:58 PM82 °FClear.3 mph86%30.10 "Hg10 mi
9:58 PM83 °FPassing clouds.3 mph84%30.09 "Hg10 mi
8:58 PM83 °FClear.3 mph81%30.07 "Hg10 mi
7:58 PM84 °FSunny.5 mph77%30.06 "Hg10 mi
6:58 PM85 °FSunny.6 mph71%30.04 "Hg10 mi
5:58 PM88 °FSunny.8 mph67%30.04 "Hg10 mi
4:58 PM90 °FSunny.7 mph63%30.04 "Hg10 mi
3:58 PM91 °FSunny.6 mph62%30.05 "Hg10 mi
2:58 PM91 °FPassing clouds.7 mph63%30.07 "Hg10 mi
1:58 PM88 °FPartly sunny.7 mph66%30.09 "Hg10 mi
12:58 PM91 °FSunny.5 mph57%30.10 "Hg10 mi
11:58 AM88 °FSunny.2 mph62%30.11 "Hg10 mi
10:58 AM88 °FSunny.1 mph62%30.12 "Hg10 mi
9:58 AM84 °FSunny.1 mph70%30.12 "Hg10 mi
8:58 AM80 °FSunny.2 mph77%30.13 "Hg10 mi
7:58 AM74 °FClear.No wind96%30.11 "Hg10 mi
6:58 AM72 °FClear.No wind99%30.10 "Hg10 mi
5:58 AM73 °FClear.No wind97%30.08 "Hg10 mi
4:58 AM74 °FClear.No wind94%30.07 "Hg10 mi
3:58 AM74 °FClear.3 mph97%30.07 "Hg10 mi
2:58 AM76 °FClear.2 mph91%30.08 "Hg10 mi
Weather by CustomWeather, © 2014

See weather overviewHow to use our weather pages